Flag for Switzerland Weather past 2 weeks in Delémont, Jura, Switzerland

Now
67 °F

Mild.


Feels Like: 67 °F
Forecast: 58 / 74 °F
Wind: 3 mph from Southwest

Location: Grenchen

Current Time: Aug 2, 2014 at 12:17:27 PM

Latest Report: Aug 2, 2014 at 11:00 AM


Visibility: N/A

Pressure: 29.83 "Hg

Humidity: 86%

Dew point: 62 °F

Location of DelémontLocation

Historic Weather in Delémont — Graph

°F

Delémont temperature yesterday

Maximum temperature yesterday: 80 °F (at 5:00 PM)
Minimum temperature yesterday: 55 °F (at 5:00 AM)
Average temperature yesterday: 68 °F

Past Weeks' High & Low Weather Summary

 TemperatureHumidityPressure
High89 °F (Jul 18, 5:00 PM)100% (Jul 23, 5:00 AM)30.10 "Hg (Jul 23, 5:00 AM)
Low54 °F (Jul 25, 6:00 AM)18% (Jul 18, 5:00 PM)29.75 "Hg (Aug 1, 5:00 PM)
Average66 °F80%29.92 "Hg
* Reported Jul 18 10:00 AM — Aug 2 10:00 AM, Delémont, Weather by CustomWeather, © 2014

Note: Actual official high and low records may vary slightly from our data, if they occured in-between our weather recording intervals... More about our weather records

Advertising

Delémont weather history for previous 24 hours

 ConditionsComfort  
Time TempWeatherWind HumidityBarometerVisibility
10:00 AM
Aug 2
66 °FMild.3 mph89%29.83 "HgN/A
9:00 AM65 °FMild.3 mph92%29.82 "HgN/A
8:00 AM64 °FMild.3 mph96%29.82 "HgN/A
7:00 AM63 °FMild.3 mph97%29.81 "HgN/A
6:00 AM63 °FMild.2 mph96%29.83 "HgN/A
5:00 AM62 °FCool.2 mph97%29.83 "HgN/A
4:00 AM62 °FCool.1 mph97%29.82 "HgN/A
3:00 AM62 °FCool.1 mph97%29.83 "HgN/A
2:00 AM63 °FMild.3 mph96%29.83 "HgN/A
1:00 AM63 °FMild.No wind96%29.83 "HgN/A
12:00 AM64 °FMild.1 mph95%29.81 "HgN/A
11:00 PM
Aug 1
66 °FMild.1 mph92%29.81 "HgN/A
10:00 PM67 °FMild.1 mph90%29.80 "HgN/A
9:00 PM70 °FMild.3 mph79%29.78 "HgN/A
8:00 PM74 °FMild.3 mph70%29.77 "HgN/A
7:00 PM77 °FWarm.7 mph59%29.76 "HgN/A
6:00 PM77 °FWarm.7 mph56%29.76 "HgN/A
5:00 PM80 °FWarm.5 mph46%29.75 "HgN/A
4:00 PM79 °FWarm.5 mph47%29.77 "HgN/A
3:00 PM78 °FWarm.5 mph51%29.78 "HgN/A
2:00 PM78 °FWarm.7 mph48%29.79 "HgN/A
1:00 PM75 °FMild.5 mph55%29.82 "HgN/A
12:00 PM72 °FMild.3 mph61%29.84 "HgN/A
Weather by CustomWeather, © 2014

See weather overviewHow to use our weather pages